Volver al catálogo

SL-8 DEB

ActivoLEO
NORAD 21180·DEBRIS·🇷🇺 Russia

Lanzado Feb 12, 1991 desde Plesetsk Cosmodrome

Loading…

Próximos Pases (próximas 24 horas)

TLE

ActualizadoSource: Space-Track

Época: Sep 14, 2026, 14:44 UTC

1 21180U 91009AT  26257.61445971  .00000012  00000-0  22793-3 0  9999
2 21180  74.0614 207.2867 0105405 182.0375 353.7930 12.28945253591689

Sigue SL-8 DEB en tiempo real con AllMySat

Download on the App Store